Regional Weather Roundup
Issued by NWS

Home | Current Version | Previous Version | Text Only | Print | Product List | Glossary Off
Versions: 1 2 3 4 5 6 7 8 9 10 11 12 13 14 15 16 17 18 19 20 21 22 23 24 25 26 27 28 29 30 31 32 33 34 35 36 37 38 39 40 41 42 43 44 45 46 47 48 49 50

000
ASUS44 KFWD 122315
RWRTX
NORTH TEXAS HOURLY WEATHER ROUNDUP
NATIONAL WEATHER SERVICE FORT WORTH TX
500 PM CST FRI FEB 12 2016

NOTE: "FAIR" INDICATES FEW OR NO CLOUDS BELOW 12,000 FEET WITH NO
SIGNIFICANT WEATHER AND/OR OBSTRUCTIONS TO VISIBILITY.

TXZ118-119-130000-
DALLAS/FORT WORTH METROPLEX

CITY           SKY/WX    TMP DP  RH WIND       PRES   REMARKS
DFW AIRPORT    SUNNY     69  35  28 NE12      30.26R
DALLAS LOVE    SUNNY     69  36  29 NE8       30.26R
FTW MEACHAM    SUNNY     69  37  30 NE12      30.27R
DAL-EXECUTIVE  SUNNY     68  34  28 NE13      30.26R
FTW-ALLIANCE   SUNNY     69  36  29 NE10      30.27R
FTW-NAS-JRB    SUNNY     69  35  28 NE6       30.27S
FTW-SPINKS     SUNNY     70  36  28 N5        30.28R
ARLINGTON      SUNNY     70  35  27 NE8       30.27R
GRAND PRAIRIE  SUNNY     68  36  30 NE10      30.28R
ADDISON        SUNNY     68  37  32 NE6       30.26
MESQUITE       SUNNY     66  36  32 N10       30.27R
LANCASTER      SUNNY     68  32  26 NE8       30.27S
$$

TXZ091>094-102>105-117-120-121-131>134-130000-
NORTH CENTRAL TEXAS

CITY           SKY/WX    TMP DP  RH WIND       PRES   REMARKS
SHRMAN/DENISON SUNNY     67  34  30 NE10G16   30.30S
GAINESVILLE    SUNNY     67  35  31 NE9       30.30S
BOWIE          SUNNY     68  33  27 NE7       30.29R
BRIDGEPORT     SUNNY     68  39  34 E7        30.29S
DECATUR        SUNNY     67  33  28 N8        30.28S
DENTON         SUNNY     67  35  30 NE10      30.28R
MCKINNEY       SUNNY     67  38  34 N8        30.27S
GREENVILLE     SUNNY     68  34  28 N7        30.28R
ROCKWALL       SUNNY     67  38  33 NE10      30.26R
TERRELL        SUNNY     68  37  32 NE8       30.27R
WAXAHACHIE     SUNNY     67  39  35 NE7       30.28R
CLEBURNE         N/A     68  34  28 NE9       30.28R
GRANBURY       SUNNY     70  35  27 NE8       30.28R
$$

TXZ083>090-098>101-113>116-127>130-139>142-154-155-130000-
WESTERN NORTH TEXAS

CITY           SKY/WX    TMP DP  RH WIND       PRES   REMARKS
WICHITA FALLS  SUNNY     67  35  30 NE13      30.29R
WF-KICKAPOO    SUNNY     69  33  26 NE9       30.30R
VERNON         SUNNY     66  29  24 NE14      30.30S
ABILENE        SUNNY     70  32  24 E9        30.26R
ABILENE-DYESS  SUNNY     70  34  27 E9        30.25R
BRECKENRIDGE   SUNNY     72  32  23 E9        30.26S
GRAHAM         SUNNY     70  37  30 NE5       30.26S
MINERAL WELLS  SUNNY     70  35  27 E8        30.26R
STEPHENVILLE   SUNNY     69  33  26 NE8       30.29R
COMANCHE       SUNNY     70  33  25 E9        30.26R
BROWNWOOD      SUNNY     72  32  23 E12       30.25R
COLEMAN        SUNNY     73  32  22 E9        30.25R
$$

TXZ143>147-156>162-174-175-130000-
CENTRAL TEXAS

CITY           SKY/WX    TMP DP  RH WIND       PRES   REMARKS
WACO           SUNNY     72  35  25 NE16      30.24R
WACO-TSTC      SUNNY     72  36  26 NE7       30.24R
WACO-MCGREGOR  SUNNY     71  39  31 NE10      30.24R
HILLSBORO      SUNNY     69  35  27 NE12      30.26R
CORSICANA      SUNNY     72  36  26 NE9       30.26R
MEXIA          SUNNY     71  39  30 N7        30.23R
HEARNE         SUNNY     76  46  34 NE6       30.20S
CAMERON        SUNNY     75  46  35 NE9       30.20R
TEMPLE         SUNNY     71  40  32 NE14      30.23R HAZE
KILLEEN        SUNNY     72  35  26 E10       30.22R
KILLEEN-SKYLRK SUNNY     72  39  30 NE12      30.23R
FORT HOOD      SUNNY     72  34  25 NE13      30.21R
GATESVILLE     SUNNY     72  34  25 NE12      30.26R
HAMILTON       SUNNY     71  33  24 NE8       30.26R
LAMPASAS       SUNNY     72  38  29 NE13      30.22S
$$

TXZ095>097-106>112-122>126-135>138-148>153-164>167-130000-
EAST TEXAS

CITY           SKY/WX    TMP DP  RH WIND       PRES   REMARKS
PARIS          SUNNY     66  34  30 N12       30.29R
SULPHUR SPRNGS SUNNY     67  36  32 N9        30.30R
MOUNT PLEASANT SUNNY     68  33  26 N6        30.28S
GILMER         SUNNY     67  35  30 N6        30.26R
MINEOLA        SUNNY     68  36  30 N6        30.27S
TYLER          SUNNY     71  35  26 N9        30.25R
LONGVIEW       SUNNY     69  36  29 N8        30.24R
MARSHALL       SUNNY     68  31  25 N5        30.27R
ATHENS         SUNNY     70  36  28 NE7       30.24R
PALESTINE      SUNNY     72  37  28 N7        30.25R
JACKSONVILLE   SUNNY     70  36  28 NE7       30.26R
HENDERSON      SUNNY     70  36  28 NE6       30.25R
CENTER         FAIR      73  38  28 N6        30.23R
NACOGDOCHES    SUNNY     73  39  29 NE7       30.22R
LUFKIN         SUNNY     74  49  41 E5        30.21R
$$

SUPPLEMENTAL OBSERVATIONS (CENTRAL)

CITY           SKY/WX    TMP DP  RH WIND       PRES   REMARKS
LAKE TEXOMA      N/A     66  32  28 NE12        N/A
CADDO GRASSLND   N/A     68  32  26 N7G17       N/A
PAT MAYSE LAKE   N/A     66  28  24 N12         N/A
GREENVILLE       N/A     68  36  30 N9          N/A
CEDAR HILL       N/A     70  36  28 NE6         N/A
MCGREGOR         N/A     72  39  30 NE10        N/A
TEMPLE           N/A     72  39  30 N9G20       N/A
$$

SUPPLEMENTAL OBSERVATIONS (WEST)

CITY           SKY/WX    TMP DP  RH WIND       PRES   REMARKS
MILLERS CREEK    N/A     68  34  28 E9          N/A
POSSUM KINGDOM   N/A     70  34  26 NE5         N/A
LBJ GRASSLAND    N/A     70  36  28 NE6         N/A
GRANBURY         N/A     70  34  26 NE9         N/A
HAMBY            N/A     70  32  24 E9          N/A
$$

SUPPLEMENTAL OBSERVATIONS (EAST)

CITY           SKY/WX    TMP DP  RH WIND       PRES   REMARKS
CLARKSVILLE      N/A     70  36  28 N7          N/A
TEXARKANA        N/A     72  36  26 NW2         N/A
LINDEN           N/A     70  34  26 NE1         N/A
GILMER           N/A     70  36  28 N7          N/A
HENDERSON        N/A     72  36  26 NE8         N/A
LUFKIN           N/A     75  45  33 MISG        N/A
N SABINE NF      N/A     70  39  32 MISG        N/A
S SABINE NF      N/A     70  45  40 W1          N/A
$$

SUPPLEMENTAL OBSERVATIONS ARE A COLLECTION OF AUTOMATED INSTRUMENTS
THAT ARE MAINTAINED BY A VARIETY OF FEDERAL AND STATE AGENCIES.
CERTAIN ELEMENTS...SUCH AS HUMIDITY VALUES AND SUSTAINED WIND
SPEEDS...MAY BE APPROXIMATED.




USA.gov is the U.S. government's official web portal to all federal, state and local government web resources and services.